Weather Roundup
Issued by NWS Chicago, IL

Home | Current Version | Previous Version | Graphics & Text | Print | Product List | Glossary On
Versions: 1 2 3 4 5 6 7 8 9 10 11 12 13 14 15 16 17 18 19 20 21 22 23 24 25 26 27 28 29 30 31 32 33 34 35 36 37 38 39 40 41 42 43 44 45 46 47 48 49 50
000
NZUS59 KLOT 220102
HRRLOT

CHICAGO AREA WEATHER ROUNDUP
NATIONAL WEATHER SERVICE CHICAGO/ROMEOVILLE IL
700 PM CST SAT JAN 21 2017

NOTE: "FAIR" INDICATES FEW OR NO CLOUDS BELOW 12,000 FEET WITH NO
SIGNIFICANT WEATHER AND/OR OBSTRUCTIONS TO VISIBILITY.

* THESE STATIONS ARE NOT UNDER NWS QUALITY CONTROL. THEY ALSO MAY NOT
  REPORT WEATHER SUCH AS PRECIPITATION OR FOG.

ILZ005-006-012>014-019>023-220200-
NORTHEAST ILLINOIS

CITY           SKY/WX    TMP DP  RH WIND       PRES   REMARKS
OHARE          CLEAR     48  42  80 SW3       29.54R
MIDWAY         PTCLDY    48  40  73 SW5       29.55R
AURORA         CLEAR     39  38  96 W3        29.55R FOG
LANSING*       CLEAR     46  46  97 CALM      29.56R
JOLIET*        CLEAR     42  41  97 CALM      29.56R
WAUKEGAN       CLEAR     44  41  89 W3        29.54R
DUPAGE AIRPORT CLEAR     41  38  89 SW5       29.54R
WHEELING       CLEAR     46  40  79 CALM      29.55R
KANKAKEE*      CLEAR     47  44  88 CALM      29.57R
MORRIS*        PTCLDY    46  44  90 CALM      29.54R
LEWIS AIRPORT* CLEAR     45  44  96 W5        29.55R
NORTHERLY ISL    N/A     53  41  63 SW3         N/A
$$

WIZ051-052-058>065-066-070>072-220200-
SOUTHEAST WISCONSIN

CITY           SKY/WX    TMP DP  RH WIND       PRES   REMARKS
MILWAUKEE      PTCLDY    48  42  80 W6        29.54R
KENOSHA*       CLEAR     42  38  85 SW6       29.54R
RACINE*        CLEAR     41  38  89 W3        29.55R
WAUKESHA       CLOUDY    43  41  93 W13       29.55R FOG
$$

INZ001>003-010>013-019-020-220200-
NORTHWEST INDIANA

CITY           SKY/WX    TMP DP  RH WIND       PRES   REMARKS
GARY*          PTCLDY    46  43  87 W3        29.56R
MICHIGAN CITY* NOT AVBL
RENSSELAER*    NOT AVBL
VALPARAISO     CLEAR     51  49  92 CALM      29.57R
$$

LMZ740>746-220200-
SOUTHERN LAKE MICHIGAN

STATION/POSITION TIME  SKY/WX   TEMP WIND        PRES    VSBY
                                AIR  DIR/SP/G
                 (UTC)          (F)  (DEG/KT/KT) (MB)    (MI)
HARRISON CRIB    0040            57  260/  7/  8   N/A
BURNHAM HARBOR   0100            53  270/  3/  6   N/A
CALUMET HARBOR   0024            52  190/  2/  3 1000.1
BURNS HARBOR     0040            54  220/  6/  8 1001.7R
MICHIGAN CITY    0040            54  210/  5/  7   N/A
$$

ABBREVIATIONS USED IN REMARKS
   TC - TEMPERATURE IN CELSIUS
  WCI - WIND CHILL INDEX
   HX - HEAT INDEX
  VSB - VISIBILITY
$$




USA.gov is the U.S. government's official web portal to all federal, state and local government web resources and services.